Temp
82 82 82 82 82 83 83 82 83 83 83 84 84 84 84 84 85 84 85 85 84 85 85 84 84 84 84 83 82 82 81 81 82 82 81 81 81 82 81 81 81 81
82 82 82 83 82 83 83 83 83 83 83 83 84 85 85 85 85 85 84 84 84 84 84 84 84 83 83 83 83 82 82 81 80 83 81 80 81 81 82 81 81 81
83 82 82 82 83 83 85 84 83 83 84 84 85 85 85 85 85 84 84 84 84 84 84 84 84 83 83 83 82 82 82 81 80 83 80 80 81 81 82 84 82 81
82 83 83 84 84 84 84 84 83 83 84 84 84 85 85 85 85 84 84 83 83 83 84 84 84 85 83 83 82 81 81 80 81 81 80 80 81 81 81 81 82 81
82 83 84 84 84 84 84 83 84 84 84 84 85 85 84 83 83 84 84 83 83 84 83 83 84 84 83 82 82 81 81 81 81 80 80 79 80 80 81 80 80 80
83 83 83 83 84 83 83 84 84 85 85 86 84 85 85 84 84 84 84 84 84 84 84 84 84 84 83 82 82 81 81 82 81 79 79 79 80 81 81 80 79 79
83 83 83 84 84 84 83 83 84 84 85 85 85 84 85 84 83 83 84 84 84 83 84 83 83 83 83 82 81 81 80 80 81 79 78 79 80 79 80 80 79 79
84 85 84 84 84 84 83 84 84 84 84 84 84 84 84 85 83 84 84 84 84 83 83 84 83 83 85 83 81 80 80 80 80 79 78 79 79 78 79 79 79 78
84 84 84 84 84 85 86 86 86 85 85 84 85 86 84 85 84 85 83 83 83 83 83 83 82 83 84 83 81 80 79 80 80 80 79 79 79 78 79 79 78 78
83 84 85 86 86 86 86 87 88 87 85 85 85 86 85 84 84 84 83 82 82 82 83 82 82 83 83 82 80 80 80 79 80 79 80 80 80 79 80 79 79 78
85 85 85 85 86 87 87 88 88 88 87 86 86 86 85 84 83 84 83 82 82 82 82 82 83 83 83 82 81 81 81 81 80 79 79 80 80 80 79 80 79 79
84 86 86 86 86 87 88 88 89 88 88 87 87 86 85 85 83 83 83 82 82 83 83 83 83 83 82 81 83 82 81 81 81 80 80 80 80 80 80 80 80 80
86 85 84 86 85 86 87 87 88 89 89 87 87 87 86 85 84 83 83 83 82 83 83 82 83 83 82 81 81 81 81 80 81 81 80 80 80 81 82 81 81 81
85 84 84 84 85 84 85 86 86 86 86 86 86 85 86 85 84 83 83 83 83 83 83 83 83 83 82 81 81 81 81 80 80 80 81 80 80 81 82 82 81 82
84 85 84 84 84 84 84 84 84 85 85 85 84 84 85 85 85 85 83 83 83 83 83 83 83 82 82 82 81 81 81 81 80 80 80 80 79 80 80 81 81 82
84 84 83 83 83 82 82 83 83 84 84 83 83 84 84 84 84 84 85 84 83 83 83 83 83 83 75 67 71 81 81 81 80 80 80 80 79 79 80 80 81 82
84 83 83 83 83 83 83 83 83 83 83 83 83 83 83 83 83 84 85 85 84 84 83 83 84 83 67 65 66 68 78 81 80 79 80 79 79 78 78 78 80 80
84 83 83 82 83 82 82 83 83 83 82 82 82 83 82 83 83 82 83 84 84 84 84 83 84 72 65 64 65 65 69 80 81 81 80 79 80 79 79 79 79 79
84 83 83 82 82 83 83 83 82 82 82 82 82 83 83 81 81 82 82 83 84 83 84 85 85 72 64 63 64 64 64 72 82 81 80 80 80 79 80 79 79 79
84 83 83 82 83 83 82 82 82 81 82 83 83 83 82 82 82 82 82 82 83 83 82 85 85 71 63 62 62 62 63 68 82 81 81 81 80 80 80 79 79 78
84 83 83 83 83 82 82 82 82 82 82 83 84 83 82 81 82 81 82 82 83 84 83 84 86 68 61 61 60 60 61 65 80 81 80 80 80 80 80 80 79 79
84 83 83 83 83 82 82 82 82 81 81 82 83 84 85 84 83 84 83 82 83 83 83 83 86 65 61 60 59 59 60 72 78 79 80 80 80 80 80 79 80 79
85 84 83 83 82 82 82 82 81 81 82 83 83 83 84 84 83 84 83 84 83 82 82 83 85 70 60 59 58 57 62 75 77 79 79 79 79 80 79 79 79 79
84 84 83 82 82 82 82 82 83 83 83 83 83 83 84 85 85 84 84 84 84 83 84 84 85 72 57 58 57 56 64 76 77 78 79 79 79 79 79 78 78 73
85 84 84 83 82 82 83 83 83 83 84 84 84 84 84 85 85 84 84 84 86 86 74 81 86 75 56 58 56 55 65 77 78 78 77 79 79 78 79 79 78 74
86 84 83 83 83 83 84 84 84 84 84 84 85 85 85 86 85 85 84 84 85 84 84 84 84 83 66 56 55 55 59 76 79 78 78 78 79 79 78 77 77 77
MSLP
1011.89 1012.12 1012.48 1012.80 1013.01 1013.16 1013.45 1013.77 1013.84 1014.16 1014.36 1014.48 1014.77 1014.84 1015.01 1015.04 1015.12 1015.41 1015.60 1015.84 1016.04 1016.24 1016.45 1016.65 1016.80 1017.01 1017.12 1017.28 1017.57 1017.84 1018.09 1018.24 1018.33 1018.41 1018.65 1018.92 1019.16 1019.36 1019.65 1019.80 1019.92 1020.04
1011.48 1011.72 1012.01 1012.33 1012.65 1012.77 1012.92 1013.04 1013.41 1013.68 1013.97 1014.09 1014.12 1014.33 1014.45 1014.68 1014.89 1015.09 1015.41 1015.65 1015.77 1015.97 1016.04 1016.33 1016.57 1016.72 1016.92 1017.04 1017.36 1017.68 1017.92 1018.09 1018.33 1018.09 1018.53 1018.80 1019.01 1019.12 1019.36 1019.53 1019.72 1019.77
1011.04 1011.41 1011.68 1012.01 1012.12 1012.33 1012.53 1012.77 1013.04 1013.28 1013.53 1013.65 1013.80 1013.97 1014.21 1014.33 1014.68 1014.84 1015.01 1015.28 1015.53 1015.65 1015.80 1015.92 1016.21 1016.45 1016.65 1016.84 1017.09 1017.41 1017.65 1017.92 1018.16 1018.01 1018.28 1018.60 1018.68 1018.97 1019.04 1019.12 1019.36 1019.65
1010.65 1010.84 1011.09 1011.36 1011.60 1011.92 1012.16 1012.53 1012.77 1012.97 1013.16 1013.48 1013.57 1013.60 1013.80 1014.04 1014.28 1014.60 1014.84 1015.01 1015.28 1015.41 1015.41 1015.60 1015.84 1016.04 1016.41 1016.65 1016.92 1017.16 1017.28 1017.57 1017.65 1017.80 1018.12 1018.28 1018.48 1018.65 1018.89 1019.04 1019.24 1019.45
1010.09 1010.41 1010.60 1010.84 1011.09 1011.36 1011.68 1012.09 1012.33 1012.53 1012.77 1012.89 1013.09 1013.33 1013.60 1013.84 1014.12 1014.36 1014.60 1014.77 1014.97 1015.12 1015.16 1015.36 1015.48 1015.77 1016.12 1016.48 1016.68 1016.97 1017.12 1017.33 1017.45 1017.65 1018.01 1018.28 1018.36 1018.57 1018.68 1018.92 1019.28 1019.57
1009.53 1009.77 1010.04 1010.36 1010.60 1010.97 1011.28 1011.57 1011.77 1012.01 1012.28 1012.60 1012.68 1012.80 1013.12 1013.41 1013.72 1013.92 1014.12 1014.45 1014.60 1014.72 1014.80 1014.92 1015.21 1015.45 1015.77 1016.16 1016.45 1016.65 1016.77 1017.01 1017.12 1017.45 1017.80 1018.09 1018.21 1018.24 1018.45 1018.72 1019.09 1019.45
1009.09 1009.36 1009.68 1009.84 1010.16 1010.36 1010.77 1011.01 1011.28 1011.53 1011.72 1011.89 1012.16 1012.53 1012.65 1013.04 1013.36 1013.53 1013.68 1013.92 1014.16 1014.33 1014.45 1014.60 1014.84 1015.09 1015.33 1015.72 1016.16 1016.41 1016.48 1016.68 1016.84 1017.16 1017.57 1017.77 1017.97 1018.21 1018.24 1018.53 1018.84 1019.16
1008.45 1008.72 1009.04 1009.36 1009.72 1009.97 1010.28 1010.57 1010.80 1011.04 1011.24 1011.57 1011.89 1011.97 1012.16 1012.53 1012.80 1013.01 1013.21 1013.45 1013.72 1013.97 1014.09 1014.16 1014.41 1014.72 1014.84 1015.28 1015.77 1016.09 1016.33 1016.36 1016.60 1016.89 1017.28 1017.53 1017.68 1018.01 1018.16 1018.24 1018.53 1018.89
1007.84 1008.21 1008.48 1008.84 1009.24 1009.48 1009.80 1010.04 1010.28 1010.53 1010.68 1011.09 1011.33 1011.53 1011.68 1011.92 1012.21 1012.45 1012.77 1013.01 1013.24 1013.48 1013.72 1013.89 1014.09 1014.33 1014.45 1014.80 1015.24 1015.53 1015.92 1016.04 1016.12 1016.45 1016.80 1017.16 1017.45 1017.65 1017.80 1017.89 1018.24 1018.48
1007.45 1007.60 1007.97 1008.28 1008.72 1008.92 1009.24 1009.45 1009.60 1009.89 1010.09 1010.48 1010.72 1010.92 1011.24 1011.41 1011.65 1011.97 1012.24 1012.57 1012.80 1013.04 1013.33 1013.48 1013.77 1013.92 1014.09 1014.41 1014.65 1015.01 1015.36 1015.65 1015.80 1016.04 1016.24 1016.48 1016.77 1017.09 1017.28 1017.48 1017.77 1018.12
1006.80 1007.04 1007.45 1007.72 1008.04 1008.28 1008.60 1008.80 1009.01 1009.24 1009.48 1009.89 1010.21 1010.53 1010.68 1011.01 1011.33 1011.48 1011.80 1012.09 1012.36 1012.57 1012.80 1013.04 1013.28 1013.48 1013.72 1014.01 1014.09 1014.36 1014.72 1015.04 1015.33 1015.60 1015.80 1016.01 1016.21 1016.48 1016.68 1016.92 1017.21 1017.48
1006.12 1006.41 1006.68 1007.01 1007.36 1007.65 1007.84 1008.04 1008.28 1008.60 1008.92 1009.21 1009.48 1009.97 1010.16 1010.36 1010.77 1011.01 1011.21 1011.53 1011.72 1011.92 1012.12 1012.45 1012.72 1012.97 1013.24 1013.41 1013.57 1013.89 1014.24 1014.53 1014.77 1015.09 1015.33 1015.57 1015.80 1016.01 1016.16 1016.33 1016.60 1016.84
1005.24 1005.57 1005.89 1006.28 1006.65 1006.89 1007.09 1007.41 1007.68 1007.92 1008.21 1008.57 1008.68 1009.09 1009.57 1009.92 1010.16 1010.53 1010.65 1010.89 1011.16 1011.45 1011.72 1011.92 1012.28 1012.57 1012.77 1012.92 1013.16 1013.41 1013.72 1014.09 1014.36 1014.65 1014.92 1015.21 1015.36 1015.48 1015.60 1015.80 1016.01 1016.21
1004.33 1004.72 1005.21 1005.53 1005.80 1006.16 1006.48 1006.77 1007.04 1007.36 1007.60 1007.80 1008.12 1008.60 1008.92 1009.21 1009.57 1009.92 1010.12 1010.36 1010.68 1011.01 1011.16 1011.41 1011.84 1012.09 1012.24 1012.48 1012.68 1012.89 1013.21 1013.57 1013.89 1014.21 1014.57 1014.80 1015.01 1015.12 1015.21 1015.33 1015.48 1015.60
1003.72 1004.24 1004.57 1005.01 1005.36 1005.77 1006.09 1006.41 1006.65 1006.84 1007.12 1007.41 1007.68 1007.97 1008.16 1008.45 1008.72 1009.12 1009.65 1010.01 1010.21 1010.45 1010.72 1010.97 1011.33 1011.53 1011.65 1011.89 1012.21 1012.45 1012.60 1013.04 1013.41 1013.77 1014.09 1014.48 1014.72 1014.84 1014.92 1015.01 1015.04 1015.09
1003.21 1003.68 1004.09 1004.41 1004.92 1005.28 1005.57 1005.84 1006.16 1006.45 1006.72 1007.04 1007.28 1007.48 1007.80 1008.04 1008.41 1008.68 1009.01 1009.41 1009.84 1010.04 1010.24 1010.53 1010.77 1010.80 1010.89 1011.21 1011.41 1011.65 1012.04 1012.45 1012.89 1013.28 1013.65 1013.97 1014.36 1014.60 1014.68 1014.68 1014.65 1014.60
1002.84 1003.28 1003.60 1004.12 1004.33 1004.72 1005.04 1005.41 1005.77 1006.01 1006.33 1006.60 1006.89 1007.16 1007.48 1007.77 1008.04 1008.33 1008.57 1008.84 1009.21 1009.48 1009.80 1009.92 1010.04 1010.04 1010.41 1010.77 1011.12 1011.36 1011.57 1011.92 1012.41 1012.84 1013.21 1013.57 1013.84 1014.16 1014.36 1014.36 1014.28 1014.28
1002.28 1002.72 1003.21 1003.48 1003.89 1004.28 1004.57 1004.97 1005.36 1005.68 1005.97 1006.21 1006.48 1006.80 1007.09 1007.24 1007.57 1007.84 1008.21 1008.36 1008.60 1008.84 1009.12 1009.21 1009.36 1009.48 1010.01 1010.28 1010.72 1011.16 1011.36 1011.53 1011.84 1012.33 1012.72 1013.09 1013.36 1013.60 1013.72 1013.84 1013.97 1014.04
1001.80 1002.33 1002.68 1003.09 1003.36 1003.72 1004.21 1004.65 1005.01 1005.33 1005.57 1005.80 1006.04 1006.12 1006.48 1006.92 1007.12 1007.53 1007.77 1007.89 1008.09 1008.36 1008.57 1008.60 1008.72 1008.80 1009.45 1009.77 1010.28 1010.80 1011.21 1011.41 1011.45 1011.72 1012.16 1012.53 1012.80 1013.01 1013.21 1013.36 1013.48 1013.77
1001.24 1001.72 1002.12 1002.41 1002.80 1003.33 1003.72 1004.16 1004.53 1004.72 1004.80 1005.04 1005.41 1005.72 1006.09 1006.41 1006.65 1006.97 1007.21 1007.45 1007.57 1007.89 1008.09 1008.04 1008.04 1008.21 1008.92 1009.33 1009.84 1010.41 1010.89 1011.24 1011.09 1011.28 1011.57 1011.89 1012.21 1012.41 1012.60 1012.80 1012.97 1013.28
1000.84 1001.21 1001.65 1002.01 1002.36 1002.72 1003.16 1003.53 1003.80 1004.09 1004.41 1004.53 1004.84 1005.24 1005.68 1006.01 1006.24 1006.60 1006.72 1006.89 1007.12 1007.33 1007.60 1007.68 1007.33 1007.72 1008.33 1008.77 1009.36 1010.01 1010.53 1011.01 1010.84 1010.92 1011.12 1011.41 1011.60 1011.77 1011.97 1012.12 1012.33 1012.57
1000.57 1001.09 1001.57 1001.89 1002.24 1002.57 1002.92 1003.21 1003.36 1003.53 1003.80 1004.04 1004.41 1004.68 1004.92 1005.33 1005.68 1005.72 1006.09 1006.36 1006.53 1006.80 1007.04 1007.12 1006.84 1007.24 1007.72 1008.24 1008.89 1009.57 1010.21 1010.65 1010.53 1010.60 1010.77 1010.97 1011.16 1011.24 1011.41 1011.57 1011.72 1012.01
1000.36 1000.89 1001.33 1001.60 1001.89 1002.24 1002.53 1002.68 1002.89 1003.04 1003.21 1003.41 1004.01 1004.12 1004.45 1004.77 1004.92 1005.12 1005.36 1005.77 1005.97 1006.12 1006.33 1006.33 1006.36 1006.60 1007.21 1007.72 1008.41 1009.04 1009.80 1009.92 1010.01 1010.16 1010.28 1010.53 1010.60 1010.68 1010.89 1011.04 1011.24 1011.45
999.28 999.68 1000.16 1000.53 1000.89 1001.16 1001.33 1001.45 1001.60 1001.92 1002.28 1002.41 1002.80 1003.33 1003.65 1003.60 1003.92 1004.53 1004.65 1004.77 1005.04 1005.28 1005.33 1005.72 1005.72 1005.92 1006.72 1007.24 1007.80 1008.45 1008.72 1009.01 1009.36 1009.65 1009.84 1010.04 1010.16 1010.24 1010.36 1010.60 1010.72 1011.09
998.48 998.97 999.48 1000.01 1000.33 1000.45 1000.68 1001.21 1001.45 1001.65 1001.80 1002.16 1002.45 1002.72 1002.80 1002.97 1003.36 1003.72 1003.84 1004.01 1004.01 1004.16 1004.57 1005.12 1005.01 1005.41 1006.21 1006.65 1007.21 1007.80 1008.28 1008.41 1008.80 1009.16 1009.53 1009.65 1009.72 1009.97 1010.01 1010.21 1010.48 1010.84
998.41 998.80 999.12 999.53 999.92 1000.16 1000.41 1000.65 1000.84 1001.28 1001.45 1001.57 1001.84 1002.09 1002.48 1002.68 1002.84 1002.97 1003.24 1003.28 1003.28 1003.60 1003.92 1004.16 1004.41 1004.53 1005.36 1006.01 1006.57 1007.24 1007.77 1007.97 1008.16 1008.77 1009.09 1009.12 1009.28 1009.45 1009.89 1010.04 1010.21 1010.45
Wind_Speed
13 12 13 13 13 12 12 12 12 12 11 10 11 10 10 9 10 11 11 11 12 12 12 11 11 11 10 8 9 7 6 7 7 6 7 7 6 7 6 6 6 5
16 14 12 12 11 11 11 12 12 12 11 11 10 10 9 9 10 10 11 11 11 12 11 12 11 11 10 8 10 10 9 7 8 5 7 8 6 7 7 7 7 6
16 15 15 15 14 15 16 12 12 11 11 11 11 10 9 9 10 11 10 11 10 11 12 12 12 11 11 10 10 10 8 8 8 7 7 8 7 6 6 6 6 7
17 16 16 16 15 14 14 12 12 11 11 11 12 11 9 9 10 11 11 11 10 10 11 11 12 12 11 12 11 8 8 8 8 7 7 6 6 6 6 5 5 5
18 17 16 15 14 14 13 13 15 13 14 13 11 11 10 10 10 12 12 11 13 12 10 12 12 12 11 11 11 8 8 8 8 8 7 7 6 6 5 5 6 6
16 16 15 15 15 14 14 15 15 14 14 14 13 12 12 12 11 12 12 13 13 12 12 12 13 12 12 12 11 10 8 8 8 9 9 8 7 6 5 6 7 7
17 17 18 15 16 16 15 15 14 14 13 13 11 12 12 13 13 13 13 13 13 12 12 12 12 13 12 12 12 12 9 9 9 10 10 8 7 7 7 6 7 7
19 17 17 16 17 16 16 15 14 14 13 12 13 13 13 14 14 13 13 13 13 13 13 12 12 13 13 12 13 11 11 8 9 10 10 9 8 9 8 6 7 8
18 17 17 19 19 17 18 17 15 15 14 14 14 13 13 14 14 14 13 14 13 13 14 12 13 13 13 14 12 11 12 11 10 11 11 11 10 10 9 8 8 8
18 17 20 20 20 18 19 19 17 16 15 15 15 14 14 14 14 14 14 14 14 14 16 13 13 14 14 14 12 12 12 12 11 11 11 12 11 10 10 9 10 9
21 20 20 21 20 18 20 20 19 17 15 17 16 15 15 13 13 14 14 14 14 15 15 14 16 15 15 14 12 11 12 12 12 11 12 12 12 11 11 11 10 11
21 21 22 22 21 20 21 20 19 18 17 16 17 17 16 15 15 14 14 15 15 14 14 16 16 16 16 13 13 13 12 12 11 12 12 12 12 11 11 11 11 11
21 21 19 20 20 19 18 18 19 19 18 18 17 18 17 16 15 15 13 15 15 14 14 14 15 17 14 12 13 13 13 13 13 12 12 11 11 12 12 12 11 11
20 19 18 18 18 17 17 18 18 18 18 16 16 18 18 17 17 16 14 14 14 14 14 13 16 15 13 13 13 13 13 13 13 13 12 11 11 12 12 12 12 12
16 16 16 17 17 16 17 17 17 17 16 15 15 16 15 17 17 16 16 15 15 14 14 15 16 14 12 13 13 14 13 14 14 13 12 12 11 12 11 12 12 12
15 14 15 16 16 17 17 17 16 16 16 16 15 16 15 15 16 16 16 16 16 15 15 15 16 15 14 19 16 13 14 12 11 12 12 11 11 11 11 12 13 13
14 15 15 16 17 16 16 17 17 15 16 16 16 16 16 15 16 17 17 16 17 16 18 16 17 16 18 19 20 19 14 13 12 12 12 12 12 12 12 12 12 13
15 16 16 17 16 17 16 16 16 16 16 17 16 17 16 16 18 17 16 16 16 18 17 16 18 17 18 21 21 21 17 12 11 11 11 12 12 13 11 11 12 11
14 15 16 16 17 16 15 15 16 16 17 17 18 17 17 18 19 19 19 18 18 19 21 19 17 18 20 21 21 21 20 16 11 12 12 12 13 13 13 12 10 10
16 17 17 17 16 15 16 16 17 18 18 17 16 17 17 20 21 21 18 21 21 22 19 19 19 17 21 21 21 21 20 18 12 13 13 13 13 13 12 13 12 11
16 16 16 16 16 16 16 17 18 17 18 17 18 19 20 21 20 21 21 20 21 19 18 19 17 18 21 22 21 21 21 18 14 12 12 12 12 13 13 13 13 11
15 14 13 13 15 15 16 18 17 17 18 17 16 18 18 17 19 20 21 21 21 21 21 21 18 18 21 22 22 21 21 14 15 13 13 12 12 13 13 12 12 12
13 14 14 15 16 17 18 18 18 18 16 16 19 18 18 20 20 19 18 19 20 22 22 21 19 16 22 22 22 23 18 13 14 13 13 13 13 13 13 12 12 13
17 18 18 18 18 20 21 20 19 16 18 17 18 20 21 20 19 19 19 19 21 23 23 22 19 15 22 22 24 24 22 15 13 14 16 14 12 12 11 11 13 17
16 16 17 17 17 18 17 17 17 16 15 15 17 17 17 16 17 19 20 19 21 23 22 23 19 16 22 22 25 24 21 14 13 14 15 17 13 13 12 10 10 14
12 13 15 15 17 16 14 15 13 13 15 16 17 16 16 19 18 19 22 21 20 20 17 21 22 13 18 24 24 24 25 15 12 14 19 20 16 14 14 10 10 10
Wind_Direction
198 197 198 199 203 202 200 198 201 201 200 201 204 203 203 197 187 187 194 204 212 218 222 224 224 223 220 209 216 210 209 209 215 206 205 203 206 205 204 207 209 223
201 199 198 199 200 198 200 198 197 198 199 200 204 201 199 188 185 187 191 198 203 214 216 219 220 221 217 202 212 217 220 211 214 207 204 201 206 204 212 212 216 217
200 199 198 200 203 204 206 203 200 199 202 203 202 203 199 192 189 191 193 197 203 209 211 217 221 220 220 212 205 212 209 211 212 212 203 204 204 205 215 220 220 210
201 201 202 205 206 204 200 199 197 199 203 202 203 203 199 196 196 193 199 196 205 206 206 209 215 219 218 216 211 204 204 204 210 204 199 200 202 207 208 210 220 216
199 200 202 203 203 200 195 199 201 199 201 203 199 197 194 191 193 198 204 202 216 213 205 208 213 215 214 215 212 207 200 208 201 198 199 201 201 197 203 198 208 217
200 199 199 200 199 196 197 201 202 202 200 201 198 196 196 194 197 199 197 204 213 213 207 204 209 210 209 214 214 213 201 204 199 193 199 204 205 197 198 194 205 214
196 197 200 200 202 200 201 203 201 201 200 201 193 197 194 195 198 199 198 202 207 209 207 201 205 210 208 213 214 213 205 200 195 190 197 203 202 195 196 192 204 212
200 201 202 204 205 204 202 201 200 198 197 195 198 196 192 196 197 199 199 200 204 208 207 203 201 207 208 209 211 201 200 196 200 193 195 202 198 200 191 194 198 209
198 200 198 200 203 204 204 203 202 200 196 198 201 200 197 199 198 199 197 198 202 206 210 202 201 207 207 208 200 192 198 201 201 196 195 197 197 197 195 193 199 207
197 200 201 202 204 206 206 206 205 202 198 201 201 203 199 198 198 198 197 198 203 207 212 199 203 210 209 205 193 192 199 201 200 198 197 197 196 193 196 197 201 205
200 200 202 204 205 205 206 206 206 205 202 201 201 204 202 195 197 198 199 200 204 206 208 207 213 211 208 202 193 195 199 202 201 199 199 198 196 193 197 198 199 206
199 201 204 203 202 204 205 205 204 204 201 199 200 202 200 198 195 197 200 202 205 206 206 207 210 211 208 196 195 196 199 205 203 201 201 198 196 198 200 201 203 204
198 199 199 200 199 200 202 202 203 203 202 201 199 201 199 198 198 199 201 203 204 204 205 202 204 211 205 196 196 195 198 202 205 203 202 199 200 202 203 203 205 204
198 194 194 196 196 196 198 199 199 201 202 201 198 199 201 199 199 199 201 202 203 205 206 203 210 207 200 199 197 196 197 200 202 203 202 200 200 202 204 206 206 208
188 189 190 189 190 192 193 195 196 196 197 198 197 197 200 201 201 200 202 202 203 204 205 208 215 209 201 199 198 200 199 199 201 202 200 199 198 201 203 205 208 211
179 185 188 187 190 194 192 192 194 193 193 195 195 195 197 198 201 203 204 202 201 203 207 211 219 221 205 197 198 198 196 199 198 201 200 198 194 198 201 204 209 214
184 195 192 193 196 195 195 195 195 194 197 199 200 199 200 198 200 204 205 206 205 205 211 213 219 222 201 195 201 202 196 194 193 195 197 197 197 196 201 204 212 215
190 190 191 195 192 195 193 193 195 197 200 201 201 203 200 201 205 203 204 207 211 212 210 210 220 215 195 195 199 202 202 199 197 197 195 198 200 202 203 205 209 210
187 188 193 193 193 192 190 190 195 198 201 201 203 201 202 206 209 210 211 211 213 216 222 218 216 209 195 194 197 200 201 203 205 200 196 198 200 201 203 205 206 203
188 191 194 193 188 186 187 191 195 201 202 204 203 204 206 212 210 211 211 216 216 218 220 220 217 204 191 191 195 197 197 199 210 201 201 199 198 198 201 204 202 199
191 192 192 188 185 185 187 193 197 201 202 203 208 209 212 214 212 213 215 215 216 215 218 221 220 200 187 189 193 192 193 195 208 207 203 201 199 201 202 202 200 201
191 191 189 187 186 189 193 198 199 199 200 200 206 212 215 216 217 216 216 216 216 217 220 224 221 192 187 188 189 189 185 193 205 209 206 202 202 202 202 202 200 200
188 189 190 189 189 192 197 199 200 201 200 201 207 209 211 214 217 215 218 217 215 216 218 223 224 193 186 186 185 183 178 197 202 209 212 206 206 203 201 200 197 199
187 189 190 190 190 194 197 200 200 199 198 194 200 206 210 212 214 217 218 218 217 218 217 219 221 191 184 183 184 180 184 194 198 207 216 210 208 203 198 198 200 197
189 190 189 190 195 199 199 200 201 201 202 205 210 210 209 210 212 217 218 217 220 220 215 216 218 196 180 181 183 181 187 195 196 207 212 218 209 208 203 199 196 198
193 192 191 194 199 201 199 202 199 200 200 201 207 212 214 217 216 219 218 218 218 216 211 213 217 204 177 183 182 181 187 193 197 205 218 218 214 211 214 195 196 199